Regional Weather Roundup
Issued by NWS Cleveland, OH

Home | Current Version | Previous Version | Graphics & Text | Print | Product List | Glossary On
Versions: 1 2 3 4 5 6 7 8 9 10 11 12 13 14 15 16 17 18 19 20 21 22 23 24 25 26 27 28 29 30 31 32 33 34 35 36 37 38 39 40 41 42 43 44 45 46 47 48 49 50
000
ASUS41 KCLE 021210
RWRCLE
OHIO REGIONAL WEATHER ROUNDUP
NATIONAL WEATHER SERVICE CLEVELAND, OH
700 AM EST MON MAR 02 2015

NOTE: "FAIR" INDICATES FEW OR NO CLOUDS BELOW 12,000 FEET WITH NO
SIGNIFICANT WEATHER AND/OR OBSTRUCTIONS TO VISIBILITY.

OHZ001>008-015>018-024>027-034-035-043-044-021300-
   NORTHWEST OHIO

CITY           SKY/WX    TMP DP  RH WIND       PRES   REMARKS
DEFIANCE       PTCLDY    13   9  84 W6        30.42R WCI   4
FINDLAY        CLEAR     14  10  84 W12       30.40R WCI   0
TOLEDO EXPRESS CLEAR     10   7  87 W12       30.39R FOG     WCI  -5
TOLEDO EXEC    CLEAR     15  10  80 SW9       30.40R WCI   3
LIMA           MOCLDY    12   8  84 W9        30.41R FOG     WCI   0
$$

OHZ009>014-019>023-028>033-038-089-021300-
   NORTHEAST OHIO

CITY           SKY/WX    TMP DP  RH WIND       PRES   REMARKS
CLE-HOPKINS    LGT SNOW  21  15  78 W13       30.39R WCI   9
CLE-LAKEFRONT  MOCLDY    22  15  75 W20       30.36R WCI   7
CUY CO. ARPT   CLOUDY    25  18  74 W14G25    30.34  WCI  13
LORAIN-ELYRIA  FLURRIES  20  15  81 W12       30.38R WCI   8
ASHTABULA      CLOUDY    22  16  78 W14       30.31R WCI   9
AKRON-CANTON   MOCLDY    20  14  77 W8        30.33R WCI  10
WOOSTER        MOCLDY    16  12  84 W8        30.36R WCI   5
MANSFIELD      MOCLDY    18  14  84 W9        30.35R WCI   7
YOUNGSTOWN     FLURRIES  20  15  81 W9        30.30R WCI   9
$$

OHZ042-051>053-060>062-070>072-077>081-021300-
  SOUTHWEST OHIO

CITY           SKY/WX    TMP DP  RH WIND       PRES   REMARKS
CINC-COVINGTON MOCLDY    22  16  78 NW7       30.47R WCI  13
CINC-LUNKEN    PTCLDY    23  16  74 N6        30.51R WCI  16
HAMILTON       PTCLDY    22  15  75 NW8       30.49R WCI  12
DAYTON         CLOUDY    17  12  80 NW8       30.45R WCI   7
WRIGHT-PAT AFB CLOUDY    18  13  82 W5        30.46R WCI  11
DAYTON GENERAL MOCLDY    19  14  81 NW7       30.44R WCI  10
WILMINGTON     CLOUDY    20  14  77 NW8       30.45R WCI  10
$$

OHZ036-037-039>041-045>050-054>059-063>069-073>076-082>088-021300-
  CENTRAL AND SOUTHEAST OHIO

CITY           SKY/WX    TMP DP  RH WIND       PRES   REMARKS
COLUMBUS       MOCLDY    20  13  74 NW9       30.43R WCI   9
OSU AIRPORT    MOCLDY    19  13  77 W8        30.42R WCI   9
BOLTON FIELD   NOT AVBL
RICKENBACK AFB CLOUDY    21  15  78 W7        30.44R WCI  12
NEWARK         MOCLDY    21  15  78 W7        30.42R WCI  12
MARION         PTCLDY    15  10  80 W8        30.40R HAZE    WCI   4
LANCASTER      CLOUDY    22  15  75 NW9       30.43R WCI  12
ZANESVILLE     CLOUDY    22  15  75 W8        30.40R WCI  12
NEW PHILLY     LGT SNOW  24  17  74 NW8       30.39R WCI  15
$$



USA.gov is the U.S. government's official web portal to all federal, state and local government web resources and services.